Regional Weather Roundup
Issued by NWS Albany, NY

Home | Current Version | Previous Version | Graphics & Text | Print | Product List | Glossary On
Versions: 1 2 3 4 5 6 7 8 9 10 11 12 13 14 15 16 17 18 19 20 21 22 23 24 25 26 27 28 29 30 31 32 33 34 35 36 37 38 39 40 41 42 43 44 45 46 47 48 49 50
000
ASUS41 KALY 051610
RWRALY

NEW YORK STATE HOURLY WEATHER ROUNDUP
NATIONAL WEATHER SERVICE ALBANY NY
1200 PM EDT TUE MAY 05 2015

NOTE: "FAIR" INDICATES FEW OR NO CLOUDS BELOW 12,000 FEET WITH NO
SIGNIFICANT WEATHER AND/OR NO OBSTRUCTIONS TO VISIBILITY.

NYZ032-033-038>043-046>054-057>066-NYZ062>081-051700-
EAST


CITY           SKY/WX    TMP DP  RH WIND       PRES   REMARKS
ALBANY         PTSUNNY   74  50  42 VRB6      30.23F
GLENS FALLS    MOSUNNY   69  47  45 E12       30.24S
POUGHKEEPSIE   MOSUNNY   77  50  38 N3        30.21S
NEWBURGH       PTSUNNY   75  59  57 VRB6      30.24R
MONTGOMERY     MOSUNNY   77  56  48 CALM      30.21F
WHITE PLAINS   PTSUNNY   75  53  46 W7        30.22S
ISLIP          CLOUDY    76  51  41 N9        30.20S
NEW YORK CITY  PTSUNNY   75  53  46 NE5       30.22R
CENTRAL PARK   PTSUNNY   78  54  43 E5        30.24S
$$

NYZ005>009-017-018-044>046-055-056-051700-
CENTRAL


CITY           SKY/WX    TMP DP  RH WIND       PRES   REMARKS
FULTON         CLOUDY    66  48  52 N6        30.29S
SYRACUSE       CLOUDY    68  50  52 S3        30.27F
ROME           PTSUNNY   68  39  34 NW5       30.28S
ELMIRA         MOSUNNY   71  50  47 CALM      30.26F
BINGHAMTON     MOSUNNY   69  49  48 N7        30.28F
MONTICELLO     MOSUNNY   72  45  37 W9        30.28S
$$

NYZ026>034-041>043-051700-
NORTH


CITY           SKY/WX    TMP DP  RH WIND       PRES   REMARKS
WATERTOWN      PTSUNNY   63  37  38 NE10      30.30S
FORT DRUM      NOT AVBL
MASSENA        SUNNY     63  37  38 N6        30.30F
SARANAC LAKE   PTSUNNY   59  36  42 N5        30.27F
PLATTSBURGH    PTSUNNY   62  41  46 E10       30.26F
$$

NYZ001>004-010>016-019>021-051700-
WEST


CITY           SKY/WX    TMP DP  RH WIND       PRES   REMARKS
NIAGARA FALLS  CLOUDY    64  49  57 VRB5      30.28S
BUFFALO        CLOUDY    66  47  50 CALM      30.28S
DUNKIRK        CLOUDY    57  51  80 N5        30.28S
JAMESTOWN      CLOUDY    64  54  68 SW6       30.30S
WELLSVILLE     PTSUNNY   69  41  36 NW6       30.30F
ROCHESTER      CLOUDY    66  51  58 E5        30.30S
PENN YAN       MOSUNNY   66  52  60 CALM      30.29S
$$

             KEY
       WCI = WIND CHILL INDEX
       VSB = VISIBILITY
       HX  = HEAT INDEX
$$


USA.gov is the U.S. government's official web portal to all federal, state and local government web resources and services.